[Date Prev][Date Next][Thread Prev][Thread Next] - [Date Index][Thread Index][Author Index]

Mir Keps 5-3




 Looks like there "flying" MIR with one foot on the break and one on the
"Jets" - these keps should update last fridays by abt 1 min 20 sec's

MIR
1 16609U 86017A   99123.14576141  .00028472  00000-0  20157-3 0  4634
2 16609  51.6616 214.4256 0019023  93.3220 267.0014 15.73502022754325

----
Via the sarex mailing list at AMSAT.ORG courtesy of AMSAT-NA.
To unsubscribe, send "unsubscribe sarex" to Majordomo@amsat.org



AMSAT Top AMSAT Home